Regional Weather Roundup
Issued by NWS Grand Forks, ND

Home | Current Version | Previous Version | Graphics & Text | Print | Product List | Glossary On
Versions: 1 2 3 4 5 6 7 8 9 10 11 12 13 14 15 16 17 18 19 20 21 22 23 24 25 26 27 28 29 30 31 32 33 34 35 36 37 38 39 40 41 42 43 44 45 46 47 48 49 50
000
ASUS43 KFGF 201810
RWRFGF
PRAIRIE TO PINES  WEATHER ROUNDUP
NATIONAL WEATHER SERVICE EASTERN NORTH DAKOTA/GRAND FORKS ND
100 PM CDT MON APR 20 2015

 **SATELLITE DATA USED TO AUGMENT SKY COVER AT AUTOMATED STATIONS**
 *****  WEATHER ACROSS EASTERN NORTH DAKOTA  *****

CITY           SKY/WX    TMP DP  RH WIND       PRES   REMARKS
GRAND FORKS    LGT SNOW  36  30  79 NW26G35   29.60S
6HR MIN TEMP:  32; 6HR MAX TEMP:  37; 6HR PCP: TRACE;

GRAND FRKS AFB MIX PCPN  36  29  76 N24G37    29.60F
GRAND FRKS NWS   N/A     34 N/A N/A N24         N/A  WCI  21
DEVILS LAKE    CLOUDY    37  27  65 N29G36    29.64F
6HR MIN TEMP:  34; 6HR MAX TEMP:  39;

FARGO          LGT SNOW  37  32  82 NW20G30   29.61S
WAHPETON ARPT  CLOUDY    36  28  75 NW17G26   29.62F
$$

 ***** WEATHER ACROSS CENTRAL AND WESTERN NORTH DAKOTA  *****

CITY           SKY/WX    TMP DP  RH WIND       PRES   REMARKS
BISMARCK       SUNNY     50   7  17 NW26G38   29.78F
6HR MIN TEMP:  31; 6HR MAX TEMP:  50;

MINOT          SUNNY     47  16  29 NW29G38   29.77F
6HR MIN TEMP:  28; 6HR MAX TEMP:  47; 6HR PCP: TRACE;

JAMESTOWN      CLOUDY    39  26  59 NW26G37   29.67S
6HR MIN TEMP:  35; 6HR MAX TEMP:  39;

MINOT AFB      SUNNY     46  16  30 NW26G37   29.77F
GARRISON         N/A     49   9  19 N31G49    29.77F
WILLISTON      SUNNY     52  13  21 N21G32    29.89F
6HR MIN TEMP:  22; 6HR MAX TEMP:  52;

DICKINSON      SUNNY     49  13  23 NW29G38   29.84F
6HR MIN TEMP:  23; 6HR MAX TEMP:  49;

HETTINGER      MOSUNNY   49  14  24 NW29G40   29.86F
6HR MIN TEMP:  22; 6HR MAX TEMP:  50;

$$

 *****  OTHER AIRPORT OBSERVATIONS IN OUR AREA  *****

CITY           SKY/WX    TMP DP  RH WIND       PRES   REMARKS
WALHALLA       LGT SNOW  32  32 100 NW26G36   29.62S WCI  18
GRAFTON AIRPOR LGT SNOW  34  34 100 N25G32    29.60F WCI  21
VALLEY CITY AR FLURRIES  36  32  87 NW23      29.64F
CANDO          CLOUDY    37  27  65 NW23G43   29.67S
CAVALIER APRT  LGT SNOW  32  28  86 NW31G38   29.60F WCI  17
GWINNER        CLOUDY    39  30  70 NW25G32   29.66F
SHEYENNE NWR     N/A     38  28  66 NW17      29.95S
ROLLA          CLOUDY    36  27  69 NW30G40   29.68F
 ***** THE ABOVE OBSERVATIONS ARE NON NWS ARE NOT QUALITY
       CONTROLLED AND MAY MIS-REPORT RAIN FOR SNOW...
$$

  *****  WEATHER ACROSS NORTHERN MINNESOTA  *****

CITY           SKY/WX    TMP DP  RH WIND       PRES   REMARKS
FLAG ISLAND    CLOUDY    34  28  80 NW21G28   29.40F WCI  22
WARROAD        CLOUDY    34  28  80 NW17G26   29.45F WCI  23
ROSEAU         CLOUDY    34  28  80 NW22G31   29.46F WCI  22
HALLOCK        LGT SNOW  32  30  93 NW25G32   29.56S WCI  19
THF RVR FALLS  CLOUDY    32  27  80 NW23G33   29.53F WCI  19
6HR MIN TEMP:  30; 6HR MAX TEMP:  34;

BAUDETTE       CLOUDY    31  26  82 NW20G26   29.42F WCI  19
6HR MIN TEMP:  29; 6HR MAX TEMP:  31;

WASKISH        CLOUDY    32  27  80 W16G24    29.44F WCI  21
CROOKSTON      NOT AVBL
STEPHEN NDAWN    N/A     34  30  86 N25         N/A  WCI  21
GREENBUSH NDAW   N/A     34  30  86 NW24        N/A  WCI  21
$$
  *****  WEATHER ACROSS CENTRAL AND WEST MINNESOTA  *****

CITY           SKY/WX    TMP DP  RH WIND       PRES   REMARKS
FOSSTON        LGT SNOW  30  25  80 NW25G35   29.53F WCI  16
BEMIDJI        CLOUDY    31  26  80 NW25      29.48S WCI  17
PARK RAPIDS    CLOUDY    39  26  59 NW26G33   29.49F
6HR MIN TEMP:  32; 6HR MAX TEMP:  39; 6HR PCP: TRACE;

ELBOW LAKE     CLOUDY    35  29  78 NW22G29   29.60F WCI  24
6HR MIN TEMP:  33; 6HR MAX TEMP:  36;

WADENA         CLOUDY    34  27  75 NW20G32   29.53F WCI  22
DETROIT LAKES  PTSUNNY   34  30  86 NW17G26   29.56F WCI  23
MOORHEAD       RAIN      36  30  80 NW25G31   29.61S
FERGUS FALLS   CLOUDY    36  27  69 NW17G29   29.61F
MORRIS MN      CLOUDY    37  30  75 NW25G35   29.60F
STAPLES        CLOUDY    34  27  75 NW18G26   29.52S WCI  23
$$
  *****  WEATHER ELSEWHERE ACROSS MINNESOTA  *****

CITY           SKY/WX    TMP DP  RH WIND       PRES   REMARKS
DULUTH         CLOUDY    36  28  73 NW18G26   29.35F
6HR MIN TEMP:  34; 6HR MAX TEMP:  37; 6HR PCP: TRACE;

INTRNTL FALLS  CLOUDY    31  26  82 W16G22    29.38F WCI  20
6HR MIN TEMP:  29; 6HR MAX TEMP:  32; 6HR PCP: TRACE;

ELY            CLOUDY    30  28  93 W13G20    29.33F FOG     WCI  20
CLOQUET        CLOUDY    37  28  70 W23G32    29.38F
WHEATON        DRIZZLE   36  32  87 W18       29.65F
BRAINERD       CLOUDY    36  26  67 NW21G28   29.48F
6HR MIN TEMP:  32; 6HR MAX TEMP:  37;

HIBBING        CLOUDY    33  25  72 NW21G28   29.39F WCI  21
6HR MIN TEMP:  31; 6HR MAX TEMP:  33; 6HR PCP: TRACE;

ALEXANDRIA     CLOUDY    36  27  69 NW24G37   29.57F
6HR MIN TEMP:  31; 6HR MAX TEMP:  37;

SAINT CLOUD    CLOUDY    40  26  57 NW21G29   29.51F
6HR MIN TEMP:  34; 6HR MAX TEMP:  41;

MINNEAPOLIS    CLOUDY    40  26  57 NW25G31   29.52S
6HR MIN TEMP:  37; 6HR MAX TEMP:  41;

$$

  *****  WEATHER ACROSS SOUTH DAKOTA  *****

CITY           SKY/WX    TMP DP  RH WIND       PRES   REMARKS
SIOUX FALLS    MOSUNNY   50  15  24 NW36G41   29.68F
6HR MIN TEMP:  37; 6HR MAX TEMP:  51;

BROOKINGS      CLOUDY    43  27  52 NW29G36   29.67F
WATERTOWN      CLOUDY    39  26  59 NW30G36   29.66S
6HR MIN TEMP:  37; 6HR MAX TEMP:  41;

HURON          SUNNY     49  16  26 NW31G41   29.73F
6HR MIN TEMP:  32; 6HR MAX TEMP:  50;

SISSETON         N/A     39  32  76 NW26G33   29.64F
ABERDEEN       PTSUNNY   47  25  42 NW25G33   29.73F
6HR MIN TEMP:  34; 6HR MAX TEMP:  48;

MITCHELL       SUNNY     53   4  13 NW32G46   29.75F
PIERRE         SUNNY     52   9  17 NW32G41   29.81F
6HR MIN TEMP:  31; 6HR MAX TEMP:  52;

MOBRIDGE       SUNNY     51   7  16 NW38G46   29.75F
RAPID CITY     CLOUDY    50  21  32 NW24G31   29.91S
6HR MIN TEMP:  27; 6HR MAX TEMP:  51;

$$

  *****  SOME WEATHER IN NEARBY STATES *****

CITY           SKY/WX    TMP DP  RH WIND       PRES   REMARKS
GLASGOW MT     PTSUNNY   53  20  27 NW13      29.93F
6HR MIN TEMP:  26; 6HR MAX TEMP:  54;

GREAT FALLS MT SUNNY     56  27  32 W8        29.94S
6HR MIN TEMP:  26; 6HR MAX TEMP:  56;

CHEYENNE WY    SUNNY     43  21  41 NW21G30   29.96F
6HR MIN TEMP:  26; 6HR MAX TEMP:  43;

SCOTTSBLUFF NE PTSUNNY   51  27  39 W17G31    29.95F
6HR MIN TEMP:  31; 6HR MAX TEMP:  52;

OMAHA NE       MOSUNNY   53  26  35 W28G33    29.79F
6HR MIN TEMP:  41; 6HR MAX TEMP:  54;

DES MOINES IA  CLOUDY    49  30  48 NW20G32   29.69F
6HR MIN TEMP:  42; 6HR MAX TEMP:  51; 6HR PCP: TRACE;

DAVENPORT IA   CLOUDY    46  32  58 W30G40    29.56R
6HR MIN TEMP:  43; 6HR MAX TEMP:  48;

CHICAGO IL     CLOUDY    46  39  76 W23G33    29.42R
6HR MIN TEMP:  46; 6HR MAX TEMP:  51; 6HR PCP: TRACE;

EAU CLAIRE WI  CLOUDY    39  31  72 W17G26    29.43R
6HR MIN TEMP:  38; 6HR MAX TEMP:  41; 6HR PCP:  0.03;

LA CROSSE WI   CLOUDY    42  31  64 NW20G29   29.47R
6HR MIN TEMP:  42; 6HR MAX TEMP:  44; 6HR PCP:  0.08;

$$

  *****  SOME NATIONAL WEATHER *****

CITY           SKY/WX    TMP DP  RH WIND       PRES   REMARKS
LA GUARDIA NY  LGT RAIN  57  54  89 SE15G26   29.70F FOG
6HR MIN TEMP:  47; 6HR MAX TEMP:  59;

RALEIGH NC     PTSUNNY   77  62  59 SW18G24   29.71F
6HR MIN TEMP:  65; 6HR MAX TEMP:  78;

ATLANTA GA     CLOUDY    74  60  61 SW12G24   29.76F
6HR MIN TEMP:  66; 6HR MAX TEMP:  74;

NEW ORLEANS LA PTSUNNY   77  60  55 N10G21    29.87F
6HR MIN TEMP:  70; 6HR MAX TEMP:  77;

OKLAHOMA CITY  MOSUNNY   62  31  31 N10G17    30.03F
6HR MIN TEMP:  42; 6HR MAX TEMP:  63;

ALBUQUERQUE NM MOSUNNY   63  26  24 SW8       30.00F
6HR MIN TEMP:  43; 6HR MAX TEMP:  63;

SALT LAKE CITY MOSUNNY   62  31  31 W7        29.96S
6HR MIN TEMP:  43; 6HR MAX TEMP:  62;




USA.gov is the U.S. government's official web portal to all federal, state and local government web resources and services.